^^

..:: Storico WU ::..




Lo storico viene creato da WUnderground con i dati che la stazione Meteomincio invia al loro server. L' aggiornamento viene fatto ogni 5 minuti circa, tuttavia possono esserci intervalli pił ampi a causa di errori, interruzioni di servizio o problemi nell' invio tramite FTP.


Storico stazione MeteoMincio
Giorno Sommario per Luglio 25, 2022 Unità:  Inglese    Metrico   Entrambi
Giorno Settimana Mese Anno
  Max: Min: Media:
Temperatura: 96.8 °F 73.4 °F 86 °F
Dew Point: 75.2 °F 64.4 °F 69.6 °F
Umidità: 82% 37% 60%
Velocità vento: 24.2mph 0mph 3.8mph
Raffica: 34.8mph - -
Direzione- - SE
Pressione: 29.9 in 29.7 in -
Precipitazioni: 0.01 in    
 
 
Tabulato Dati per Luglio 25, 2022
Ora Temperatura Dew Point Pressione Direzione Velocità vento Raffica Umidità Intensità pioggia (oraria) Info solare Situazione
00:04 82.4 °F 69.8 °F 29.9 in NE 3.1 mph 3.7 mph 65% 0 in 0.00 W/m2 unknown
00:09 82.4 °F 69.8 °F 29.9 in NE 3.1 mph 3.7 mph 66% 0 in 0.00 W/m2 unknown
00:14 82.4 °F 69.8 °F 29.9 in NE 3.7 mph 5 mph 67% 0 in 0.00 W/m2 unknown
00:19 80.6 °F 69.8 °F 29.9 in NE 4.3 mph 5 mph 68% 0 in 0.00 W/m2 unknown
00:24 80.6 °F 69.8 °F 29.9 in NE 5 mph 5 mph 68% 0 in 0.00 W/m2 unknown
00:29 80.6 °F 69.8 °F 29.9 in NE 3.1 mph 5 mph 69% 0 in 0.00 W/m2 unknown
00:34 80.6 °F 69.8 °F 29.9 in NE 3.1 mph 5 mph 69% 0 in 0.00 W/m2 unknown
00:39 80.6 °F 69.8 °F 29.9 in ENE 1.9 mph 5 mph 69% 0 in 0.00 W/m2 unknown
00:44 80.6 °F 69.8 °F 29.9 in NE 2.5 mph 3.7 mph 70% 0 in 0.00 W/m2 unknown
00:49 80.6 °F 69.8 °F 29.9 in NE 2.5 mph 3.7 mph 70% 0 in 0.00 W/m2 unknown
00:54 80.6 °F 69.8 °F 29.9 in NE 3.1 mph 3.7 mph 71% 0 in 0.00 W/m2 unknown
00:59 80.6 °F 69.8 °F 29.9 in ENE 2.5 mph 3.7 mph 71% 0 in 0.00 W/m2 unknown
01:04 78.8 °F 69.8 °F 29.9 in ENE 3.1 mph 3.7 mph 72% 0 in 0.00 W/m2 unknown
01:09 78.8 °F 69.8 °F 29.9 in NE 2.5 mph 3.7 mph 72% 0 in 0.00 W/m2 unknown
01:14 78.8 °F 69.8 °F 29.9 in ENE 1.9 mph 3.7 mph 72% 0 in 0.00 W/m2 unknown
01:19 78.8 °F 69.8 °F 29.9 in NE 1.9 mph 3.7 mph 72% 0 in 0.00 W/m2 unknown
01:24 78.8 °F 69.8 °F 29.9 in NE 3.7 mph 3.7 mph 72% 0 in 0.00 W/m2 unknown
01:29 78.8 °F 69.8 °F 29.9 in ENE 3.7 mph 3.7 mph 72% 0 in 0.00 W/m2 unknown
01:34 78.8 °F 69.8 °F 29.9 in ENE 2.5 mph 3.7 mph 72% 0 in 0.00 W/m2 unknown
01:39 78.8 °F 69.8 °F 29.9 in ENE 3.1 mph 3.7 mph 73% 0 in 0.00 W/m2 unknown
01:44 78.8 °F 69.8 °F 29.9 in ENE 3.1 mph 5 mph 73% 0 in 0.00 W/m2 unknown
01:49 78.8 °F 68 °F 29.9 in ENE 4.3 mph 5 mph 72% 0 in 0.00 W/m2 unknown
01:54 78.8 °F 68 °F 29.9 in ENE 3.7 mph 5 mph 71% 0 in 0.00 W/m2 unknown
01:59 78.8 °F 68 °F 29.9 in ENE 3.1 mph 5 mph 71% 0 in 0.00 W/m2 unknown
02:04 78.8 °F 68 °F 29.9 in ENE 3.7 mph 3.7 mph 71% 0 in 0.00 W/m2 unknown
02:09 78.8 °F 68 °F 29.9 in ENE 3.1 mph 3.7 mph 70% 0 in 0.00 W/m2 unknown
02:14 78.8 °F 68 °F 29.9 in ENE 3.7 mph 5 mph 70% 0 in 0.00 W/m2 unknown
02:19 78.8 °F 68 °F 29.9 in ENE 3.7 mph 5 mph 71% 0 in 0.00 W/m2 unknown
02:24 78.8 °F 68 °F 29.9 in ENE 3.7 mph 5 mph 71% 0 in 0.00 W/m2 unknown
02:29 78.8 °F 68 °F 29.9 in ENE 3.7 mph 5 mph 71% 0 in 0.00 W/m2 unknown
02:34 77 °F 68 °F 29.9 in ENE 3.7 mph 5 mph 71% 0 in 0.00 W/m2 unknown
02:39 77 °F 68 °F 29.9 in ENE 4.3 mph 5 mph 71% 0 in 0.00 W/m2 unknown
02:44 77 °F 68 °F 29.9 in ENE 3.1 mph 5 mph 71% 0 in 0.00 W/m2 unknown
02:49 77 °F 68 °F 29.9 in ENE 3.1 mph 3.7 mph 71% 0 in 0.00 W/m2 unknown
02:54 77 °F 68 °F 29.9 in East 3.1 mph 5 mph 71% 0 in 0.00 W/m2 unknown
02:59 77 °F 68 °F 29.9 in ENE 3.7 mph 5 mph 72% 0 in 0.00 W/m2 unknown
03:04 77 °F 68 °F 29.9 in ENE 3.1 mph 5 mph 72% 0 in 0.00 W/m2 unknown
03:09 77 °F 68 °F 29.9 in ENE 3.1 mph 3.7 mph 71% 0 in 0.00 W/m2 unknown
03:14 77 °F 66.2 °F 29.9 in ENE 3.1 mph 3.7 mph 71% 0 in 0.00 W/m2 unknown
03:19 77 °F 66.2 °F 29.9 in NE 3.7 mph 4.3 mph 71% 0 in 0.00 W/m2 unknown
03:24 77 °F 66.2 °F 29.9 in NE 3.1 mph 5 mph 70% 0 in 0.00 W/m2 unknown
03:29 77 °F 66.2 °F 29.9 in NE 3.7 mph 6.2 mph 70% 0 in 0.00 W/m2 unknown
03:34 77 °F 66.2 °F 29.9 in NE 4.3 mph 6.2 mph 70% 0 in 0.00 W/m2 unknown
03:39 77 °F 66.2 °F 29.9 in ENE 3.1 mph 6.2 mph 70% 0 in 0.00 W/m2 unknown
03:44 77 °F 66.2 °F 29.9 in NE 2.5 mph 3.7 mph 71% 0 in 0.00 W/m2 unknown
03:49 77 °F 66.2 °F 29.9 in NE 3.1 mph 5 mph 71% 0 in 0.00 W/m2 unknown
03:54 77 °F 66.2 °F 29.9 in NE 3.1 mph 5 mph 72% 0 in 0.00 W/m2 unknown
03:59 77 °F 68 °F 29.9 in NNE 1.2 mph 3.1 mph 72% 0 in 0.00 W/m2 unknown
04:04 77 °F 66.2 °F 29.9 in NE 1.2 mph 2.5 mph 72% 0 in 0.00 W/m2 unknown
04:09 77 °F 66.2 °F 29.9 in NE 1.9 mph 3.1 mph 72% 0 in 0.00 W/m2 unknown
04:14 77 °F 66.2 °F 29.9 in NNE 2.5 mph 3.7 mph 72% 0 in 0.00 W/m2 unknown
04:19 77 °F 66.2 °F 29.9 in NE 1.9 mph 3.7 mph 72% 0 in 0.00 W/m2 unknown
04:24 77 °F 66.2 °F 29.9 in NE 2.5 mph 3.7 mph 72% 0 in 0.00 W/m2 unknown
04:29 77 °F 66.2 °F 29.9 in NE 3.7 mph 5 mph 72% 0 in 0.00 W/m2 unknown
04:34 77 °F 66.2 °F 29.9 in NE 3.7 mph 5 mph 72% 0 in 0.00 W/m2 unknown
04:39 77 °F 66.2 °F 29.9 in NE 3.7 mph 5 mph 72% 0 in 0.00 W/m2 unknown
04:44 75.2 °F 66.2 °F 29.9 in NE 3.1 mph 5 mph 72% 0 in 0.00 W/m2 unknown
04:49 75.2 °F 66.2 °F 29.9 in NE 3.1 mph 3.7 mph 72% 0 in 0.00 W/m2 unknown
04:54 75.2 °F 66.2 °F 29.9 in NE 3.1 mph 3.7 mph 72% 0 in 0.00 W/m2 unknown
04:59 75.2 °F 66.2 °F 29.9 in NE 3.7 mph 3.7 mph 72% 0 in 0.00 W/m2 unknown
05:04 75.2 °F 66.2 °F 29.9 in NE 3.1 mph 3.7 mph 73% 0 in 0.00 W/m2 unknown
05:09 75.2 °F 66.2 °F 29.9 in NE 1.2 mph 3.1 mph 74% 0 in 0.00 W/m2 unknown
05:14 75.2 °F 66.2 °F 29.9 in NE 1.2 mph 1.9 mph 75% 0 in 0.00 W/m2 unknown
05:19 75.2 °F 66.2 °F 29.9 in NE 1.2 mph 1.2 mph 75% 0 in 0.00 W/m2 unknown
05:24 75.2 °F 66.2 °F 29.9 in NE 2.5 mph 3.7 mph 76% 0 in 0.00 W/m2 unknown
05:29 75.2 °F 66.2 °F 29.9 in ENE 2.5 mph 3.7 mph 76% 0 in 0.00 W/m2 unknown
05:34 75.2 °F 66.2 °F 29.9 in ENE 2.5 mph 3.7 mph 76% 0 in 0.00 W/m2 unknown
05:39 73.4 °F 66.2 °F 29.9 in East 2.5 mph 3.7 mph 77% 0 in 0.00 W/m2 unknown
05:44 73.4 °F 66.2 °F 29.9 in ESE 2.5 mph 3.7 mph 78% 0 in 0.00 W/m2 unknown
05:49 73.4 °F 66.2 °F 29.9 in East 2.5 mph 3.7 mph 78% 0 in 0.00 W/m2 unknown
05:54 73.4 °F 66.2 °F 29.9 in East 1.9 mph 3.7 mph 79% 0 in 0.00 W/m2 unknown
05:59 73.4 °F 66.2 °F 29.9 in East 2.5 mph 5 mph 79% 0 in 0.00 W/m2 unknown
06:04 73.4 °F 66.2 °F 29.9 in East 3.1 mph 5 mph 78% 0 in 5.00 W/m2 unknown
06:09 73.4 °F 66.2 °F 29.9 in East 3.1 mph 5 mph 77% 0 in 7.00 W/m2 unknown
06:14 73.4 °F 66.2 °F 29.9 in ENE 3.1 mph 5 mph 76% 0 in 11.00 W/m2 unknown
06:19 73.4 °F 66.2 °F 29.9 in ENE 3.1 mph 3.7 mph 76% 0 in 14.00 W/m2 unknown
06:24 75.2 °F 66.2 °F 29.9 in ENE 3.1 mph 3.7 mph 75% 0 in 18.00 W/m2 unknown
06:29 73.4 °F 66.2 °F 29.9 in ENE 3.1 mph 3.7 mph 75% 0 in 19.00 W/m2 unknown
06:34 73.4 °F 66.2 °F 29.9 in ENE 3.1 mph 3.7 mph 75% 0 in 23.00 W/m2 unknown
06:39 75.2 °F 66.2 °F 29.9 in ENE 2.5 mph 3.7 mph 75% 0 in 26.00 W/m2 unknown
06:44 75.2 °F 66.2 °F 29.9 in ENE 1.2 mph 3.1 mph 75% 0 in 30.00 W/m2 unknown
06:49 75.2 °F 66.2 °F 29.9 in Calm   1.9 mph 75% 0 in 37.00 W/m2 unknown
06:54 75.2 °F 66.2 °F 29.9 in Calm   1.2 mph 74% 0 in 44.00 W/m2 unknown
06:59 77 °F 66.2 °F 29.9 in Calm     73% 0 in 53.00 W/m2 unknown
07:04 77 °F 66.2 °F 29.9 in Calm   1.2 mph 72% 0 in 62.00 W/m2 unknown
07:09 77 °F 68 °F 29.9 in ENE 0.6 mph 1.2 mph 74% 0 in 70.00 W/m2 unknown
07:14 77 °F 68 °F 29.9 in ENE 0.6 mph 1.2 mph 74% 0 in 79.00 W/m2 unknown
07:19 77 °F 68 °F 29.9 in ENE 1.2 mph 2.5 mph 75% 0 in 90.00 W/m2 unknown
07:24 77 °F 68 °F 29.9 in SSW 1.9 mph 2.5 mph 75% 0 in 102.00 W/m2 unknown
07:29 77 °F 68 °F 29.9 in South 1.9 mph 2.5 mph 73% 0 in 116.00 W/m2 unknown
07:34 77 °F 68 °F 29.9 in South 1.2 mph 1.9 mph 74% 0 in 130.00 W/m2 unknown
07:39 78.8 °F 68 °F 29.9 in SSE 1.2 mph 2.5 mph 73% 0 in 144.00 W/m2 unknown
07:44 78.8 °F 68 °F 29.9 in ESE 2.5 mph 3.7 mph 71% 0 in 160.00 W/m2 unknown
07:49 78.8 °F 68 °F 29.9 in ESE 3.1 mph 3.7 mph 70% 0 in 169.00 W/m2 unknown
07:54 78.8 °F 69.8 °F 29.9 in ESE 3.1 mph 3.7 mph 70% 0 in 183.00 W/m2 unknown
07:59 78.8 °F 69.8 °F 29.9 in East 3.7 mph 5 mph 70% 0 in 195.00 W/m2 unknown
08:04 80.6 °F 69.8 °F 29.9 in East 3.7 mph 5 mph 70% 0 in 207.00 W/m2 unknown
08:09 80.6 °F 69.8 °F 29.9 in ESE 3.1 mph 5 mph 71% 0 in 220.00 W/m2 unknown
08:14 80.6 °F 69.8 °F 29.9 in ESE 3.1 mph 5 mph 71% 0 in 232.00 W/m2 unknown
08:19 80.6 °F 69.8 °F 29.9 in East 3.1 mph 5 mph 70% 0 in 243.00 W/m2 unknown
08:24 80.6 °F 69.8 °F 29.9 in East 2.5 mph 5 mph 70% 0 in 258.00 W/m2 unknown
08:29 80.6 °F 69.8 °F 29.9 in East 2.5 mph 3.7 mph 70% 0 in 272.00 W/m2 unknown
08:34 82.4 °F 69.8 °F 29.9 in East 2.5 mph 3.7 mph 68% 0 in 287.00 W/m2 unknown
08:39 82.4 °F 69.8 °F 29.9 in ESE 3.1 mph 3.7 mph 67% 0 in 302.00 W/m2 unknown
08:44 82.4 °F 69.8 °F 29.9 in ESE 3.1 mph 3.7 mph 66% 0 in 316.00 W/m2 unknown
08:49 82.4 °F 69.8 °F 29.9 in East 3.1 mph 5 mph 65% 0 in 330.00 W/m2 unknown
08:54 82.4 °F 69.8 °F 29.9 in East 3.1 mph 5 mph 66% 0 in 345.00 W/m2 unknown
08:59 84.2 °F 69.8 °F 29.9 in SE 1.9 mph 5 mph 66% 0 in 355.00 W/m2 unknown
09:04 84.2 °F 69.8 °F 29.9 in South 1.2 mph 3.7 mph 63% 0 in 371.00 W/m2 unknown
09:09 84.2 °F 69.8 °F 29.9 in ESE 2.5 mph 3.7 mph 63% 0 in 383.00 W/m2 unknown
09:14 84.2 °F 69.8 °F 29.9 in ESE 3.1 mph 5 mph 60% 0 in 397.00 W/m2 unknown
09:19 84.2 °F 69.8 °F 29.9 in SSE 3.1 mph 5 mph 60% 0 in 411.00 W/m2 unknown
09:24 86 °F 69.8 °F 29.9 in SE 3.1 mph 5 mph 59% 0 in 424.00 W/m2 unknown
09:29 86 °F 69.8 °F 29.9 in SE 3.7 mph 3.7 mph 59% 0 in 434.00 W/m2 unknown
09:34 86 °F 69.8 °F 29.9 in SE 1.2 mph 2.5 mph 59% 0 in 448.00 W/m2 unknown
09:39 86 °F 69.8 °F 29.9 in SE 3.1 mph 6.2 mph 60% 0 in 462.00 W/m2 unknown
09:44 86 °F 69.8 °F 29.9 in SE 5 mph 6.2 mph 60% 0 in 475.00 W/m2 unknown
09:49 86 °F 69.8 °F 29.9 in SE 4.3 mph 6.2 mph 60% 0 in 487.00 W/m2 unknown
09:54 86 °F 69.8 °F 29.9 in East 3.7 mph 5 mph 60% 0 in 501.00 W/m2 unknown
09:59 86 °F 69.8 °F 29.9 in East 3.7 mph 6.8 mph 57% 0 in 515.00 W/m2 unknown
10:04 86 °F 69.8 °F 29.9 in ENE 5.6 mph 6.8 mph 57% 0 in 522.00 W/m2 unknown
10:09 87.8 °F 69.8 °F 29.9 in NE 3.1 mph 6.8 mph 57% 0 in 538.00 W/m2 unknown
10:14 87.8 °F 69.8 °F 29.9 in ENE 4.3 mph 6.2 mph 56% 0 in 550.00 W/m2 unknown
10:19 87.8 °F 69.8 °F 29.9 in East 4.3 mph 6.2 mph 55% 0 in 561.00 W/m2 unknown
10:24 87.8 °F 68 °F 29.9 in ESE 3.1 mph 6.2 mph 54% 0 in 575.00 W/m2 unknown
10:29 87.8 °F 68 °F 29.9 in East 5 mph 6.8 mph 54% 0 in 587.00 W/m2 unknown
10:34 87.8 °F 69.8 °F 29.9 in ESE 5 mph 6.8 mph 54% 0 in 598.00 W/m2 unknown
10:39 87.8 °F 68 °F 29.9 in ENE 5.6 mph 6.8 mph 53% 0 in 608.00 W/m2 unknown
10:44 87.8 °F 68 °F 29.9 in East 5 mph 6.8 mph 52% 0 in 617.00 W/m2 unknown
10:49 89.6 °F 68 °F 29.9 in East 5 mph 6.8 mph 53% 0 in 629.00 W/m2 unknown
10:54 89.6 °F 68 °F 29.9 in ESE 5.6 mph 6.8 mph 52% 0 in 640.00 W/m2 unknown
10:59 87.8 °F 68 °F 29.9 in East 6.2 mph 6.8 mph 52% 0 in 649.00 W/m2 unknown
11:04 89.6 °F 71.6 °F 29.9 in East 6.2 mph 8.1 mph 57% 0 in 659.00 W/m2 unknown
11:09 89.6 °F 69.8 °F 29.9 in East 6.2 mph 6.8 mph 54% 0 in 668.00 W/m2 unknown
11:14 89.6 °F 69.8 °F 29.9 in SSE 4.3 mph 6.8 mph 52% 0 in 675.00 W/m2 unknown
11:19 89.6 °F 69.8 °F 29.9 in ENE 5 mph 6.8 mph 52% 0 in 684.00 W/m2 unknown
11:24 89.6 °F 69.8 °F 29.9 in ENE 5 mph 6.8 mph 52% 0 in 694.00 W/m2 unknown
11:29 89.6 °F 69.8 °F 29.9 in ENE 6.8 mph 8.1 mph 52% 0 in 707.00 W/m2 unknown
11:34 89.6 °F 69.8 °F 29.9 in ENE 6.2 mph 8.1 mph 50% 0 in 714.00 W/m2 unknown
11:39 89.6 °F 68 °F 29.9 in East 5.6 mph 8.1 mph 49% 0 in 721.00 W/m2 unknown
11:44 89.6 °F 68 °F 29.9 in East 6.8 mph 8.1 mph 49% 0 in 729.00 W/m2 unknown
11:49 89.6 °F 69.8 °F 29.9 in ENE 6.2 mph 8.1 mph 51% 0 in 737.00 W/m2 unknown
11:54 91.4 °F 69.8 °F 29.9 in ESE 3.1 mph 8.1 mph 51% 0 in 745.00 W/m2 unknown
11:59 91.4 °F 69.8 °F 29.9 in SE 2.5 mph 5 mph 49% 0 in 752.00 W/m2 unknown
12:04 91.4 °F 69.8 °F 29.9 in SE 3.1 mph 5 mph 50% 0 in 758.00 W/m2 unknown
12:09 91.4 °F 68 °F 29.9 in East 3.1 mph 6.8 mph 47% 0 in 765.00 W/m2 unknown
12:14 91.4 °F 68 °F 29.9 in ESE 3.7 mph 6.8 mph 46% 0 in 772.00 W/m2 unknown
12:19 91.4 °F 68 °F 29.9 in SSE 3.1 mph 6.2 mph 46% 0 in 777.00 W/m2 unknown
12:24 91.4 °F 68 °F 29.9 in East 5.6 mph 6.8 mph 46% 0 in 782.00 W/m2 unknown
12:29 91.4 °F 68 °F 29.9 in East 5 mph 6.8 mph 45% 0 in 786.00 W/m2 unknown
12:34 93.2 °F 68 °F 29.9 in SE 3.7 mph 6.8 mph 45% 0 in 791.00 W/m2 unknown
12:39 93.2 °F 66.2 °F 29.9 in SE 3.7 mph 6.8 mph 43% 0 in 793.00 W/m2 unknown
12:44 93.2 °F 66.2 °F 29.9 in SE 4.3 mph 6.8 mph 41% 0 in 800.00 W/m2 unknown
12:49 93.2 °F 66.2 °F 29.9 in SE 4.3 mph 6.8 mph 41% 0 in 803.00 W/m2 unknown
12:54 93.2 °F 66.2 °F 29.9 in SSE 4.3 mph 6.8 mph 42% 0 in 809.00 W/m2 unknown
12:59 93.2 °F 66.2 °F 29.9 in ESE 5.6 mph 8.1 mph 41% 0 in 812.00 W/m2 unknown
13:04 93.2 °F 64.4 °F 29.9 in SE 5 mph 8.1 mph 40% 0 in 812.00 W/m2 unknown
13:09 93.2 °F 66.2 °F 29.9 in SE 3.1 mph 6.8 mph 42% 0 in 816.00 W/m2 unknown
13:14 93.2 °F 68 °F 29.9 in ESE 3.7 mph 5 mph 42% 0 in 816.00 W/m2 unknown
13:19 93.2 °F 68 °F 29.9 in ESE 3.7 mph 5 mph 42% 0 in 814.00 W/m2 unknown
13:24 93.2 °F 64.4 °F 29.9 in SSE 3.1 mph 5 mph 39% 0 in 814.00 W/m2 unknown
13:29 95 °F 68 °F 29.9 in WSW 3.1 mph 3.7 mph 42% 0 in 819.00 W/m2 unknown
13:34 95 °F 68 °F 29.9 in WNW 3.1 mph 3.7 mph 42% 0 in 817.00 W/m2 unknown
13:39 95 °F 68 °F 29.9 in West 3.7 mph 5 mph 42% 0 in 817.00 W/m2 unknown
13:44 95 °F 66.2 °F 29.9 in WSW 3.1 mph 5 mph 39% 0 in 816.00 W/m2 unknown
13:49 95 °F 68 °F 29.9 in WNW 3.7 mph 6.2 mph 41% 0 in 814.00 W/m2 unknown
13:54 96.8 °F 66.2 °F 29.9 in NE 3.7 mph 6.8 mph 37% 0 in 812.00 W/m2 unknown
13:59 96.8 °F 68 °F 29.9 in ENE 4.3 mph 6.8 mph 40% 0 in 810.00 W/m2 unknown
14:04 96.8 °F 68 °F 29.9 in West 5 mph 6.8 mph 39% 0 in 809.00 W/m2 unknown
14:09 96.8 °F 69.8 °F 29.9 in WNW 5 mph 6.2 mph 43% 0 in 807.00 W/m2 unknown
14:14 96.8 °F 69.8 °F 29.9 in WNW 2.5 mph 6.2 mph 43% 0 in 807.00 W/m2 unknown
14:19 96.8 °F 69.8 °F 29.9 in North 4.3 mph 6.2 mph 42% 0 in 805.00 W/m2 unknown
14:24 96.8 °F 69.8 °F 29.9 in NNW 4.3 mph 6.2 mph 43% 0 in 800.00 W/m2 unknown
14:29 96.8 °F 69.8 °F 29.9 in WNW 5 mph 6.8 mph 43% 0 in 798.00 W/m2 unknown
14:34 96.8 °F 69.8 °F 29.9 in West 5 mph 6.8 mph 42% 0 in 795.00 W/m2 unknown
14:39 96.8 °F 69.8 °F 29.8 in South 3.7 mph 6.2 mph 41% 0 in 789.00 W/m2 unknown
14:44 96.8 °F 69.8 °F 29.8 in WSW 4.3 mph 6.2 mph 42% 0 in 786.00 W/m2 unknown
14:49 96.8 °F 69.8 °F 29.8 in WSW 5 mph 6.2 mph 42% 0 in 786.00 W/m2 unknown
14:54 96.8 °F 68 °F 29.8 in West 3.1 mph 6.2 mph 41% 0 in 788.00 W/m2 unknown
14:59 96.8 °F 69.8 °F 29.8 in WSW 5 mph 6.8 mph 43% 0 in 810.00 W/m2 unknown
15:04 96.8 °F 69.8 °F 29.8 in WSW 5 mph 6.8 mph 41% 0 in 810.00 W/m2 unknown
15:09 96.8 °F 68 °F 29.8 in South 5 mph 6.8 mph 41% 0 in 729.00 W/m2 unknown
15:14 96.8 °F 69.8 °F 29.8 in WNW 3.7 mph 6.2 mph 41% 0 in 642.00 W/m2 unknown
15:19 96.8 °F 69.8 °F 29.8 in WNW 3.1 mph 5 mph 41% 0 in 547.00 W/m2 unknown
15:24 96.8 °F 69.8 °F 29.8 in WNW 3.1 mph 5 mph 44% 0 in 422.00 W/m2 unknown
15:29 96.8 °F 69.8 °F 29.8 in East 3.1 mph 5 mph 44% 0 in 366.00 W/m2 unknown
15:34 95 °F 69.8 °F 29.8 in East 5 mph 6.2 mph 45% 0 in 334.00 W/m2 unknown
15:39 95 °F 69.8 °F 29.8 in ESE 1.9 mph 6.2 mph 46% 0 in 292.00 W/m2 unknown
15:44 95 °F 71.6 °F 29.8 in ESE 2.5 mph 3.7 mph 48% 0 in 255.00 W/m2 unknown
15:49 95 °F 71.6 °F 29.8 in SE 1.9 mph 3.7 mph 48% 0 in 299.00 W/m2 unknown
15:54 95 °F 71.6 °F 29.8 in South 1.9 mph 3.7 mph 49% 0 in 336.00 W/m2 unknown
15:59 95 °F 69.8 °F 29.8 in SW 2.5 mph 3.7 mph 45% 0 in 297.00 W/m2 unknown
16:04 95 °F 69.8 °F 29.8 in West 3.1 mph 3.7 mph 44% 0 in 258.00 W/m2 unknown
16:09 95 °F 69.8 °F 29.8 in WSW 3.1 mph 3.7 mph 44% 0 in 313.00 W/m2 unknown
16:14 95 °F 69.8 °F 29.8 in West 3.1 mph 3.7 mph 45% 0 in 332.00 W/m2 unknown
16:19 95 °F 69.8 °F 29.8 in WSW 4.3 mph 5 mph 46% 0 in 315.00 W/m2 unknown
16:24 95 °F 69.8 °F 29.8 in SSW 4.3 mph 5 mph 46% 0 in 257.00 W/m2 unknown
16:29 95 °F 69.8 °F 29.8 in WSW 3.7 mph 5 mph 46% 0 in 236.00 W/m2 unknown
16:34 95 °F 69.8 °F 29.8 in SSW 3.1 mph 5 mph 46% 0 in 213.00 W/m2 unknown
16:39 95 °F 69.8 °F 29.8 in WSW 3.1 mph 3.7 mph 45% 0 in 209.00 W/m2 unknown
16:44 95 °F 71.6 °F 29.8 in WSW 3.1 mph 3.7 mph 49% 0 in 213.00 W/m2 unknown
16:49 93.2 °F 71.6 °F 29.8 in WSW 3.1 mph 3.7 mph 49% 0 in 214.00 W/m2 unknown
16:54 93.2 °F 71.6 °F 29.8 in WSW 3.1 mph 3.7 mph 48% 0 in 213.00 W/m2 unknown
16:59 93.2 °F 71.6 °F 29.8 in West 3.7 mph 3.7 mph 50% 0 in 213.00 W/m2 unknown
17:04 93.2 °F 73.4 °F 29.8 in WSW 3.1 mph 3.7 mph 51% 0 in 207.00 W/m2 unknown
17:09 93.2 °F 71.6 °F 29.8 in SW 3.1 mph 3.7 mph 50% 0 in 193.00 W/m2 unknown
17:14 95 °F 71.6 °F 29.8 in SSW 3.1 mph 3.7 mph 49% 0 in 202.00 W/m2 unknown
17:19 95 °F 71.6 °F 29.8 in SW 5 mph 6.2 mph 49% 0 in 663.00 W/m2 unknown
17:24 95 °F 71.6 °F 29.8 in SSW 3.7 mph 5 mph 47% 0 in 673.00 W/m2 unknown
17:29 95 °F 71.6 °F 29.8 in WSW 5 mph 6.2 mph 46% 0 in 656.00 W/m2 unknown
17:34 95 °F 71.6 °F 29.8 in West 4.3 mph 6.2 mph 45% 0 in 615.00 W/m2 unknown
17:39 96.8 °F 71.6 °F 29.8 in SSW 5 mph 6.8 mph 45% 0 in 555.00 W/m2 unknown
17:44 96.8 °F 69.8 °F 29.8 in SSW 5 mph 6.8 mph 43% 0 in 499.00 W/m2 unknown
17:49 96.8 °F 69.8 °F 29.8 in South 5 mph 6.2 mph 42% 0 in 464.00 W/m2 unknown
17:54 96.8 °F 69.8 °F 29.8 in SSW 4.3 mph 5 mph 43% 0 in 439.00 W/m2 unknown
17:59 96.8 °F 69.8 °F 29.8 in SW 5 mph 6.2 mph 44% 0 in 418.00 W/m2 unknown
18:04 95 °F 69.8 °F 29.8 in West 5 mph 6.2 mph 43% 0 in 399.00 W/m2 unknown
18:09 96.8 °F 69.8 °F 29.8 in WSW 2.5 mph 5 mph 44% 0 in 383.00 W/m2 unknown
18:14 96.8 °F 71.6 °F 29.8 in SSW 4.3 mph 6.8 mph 45% 0 in 366.00 W/m2 unknown
18:19 96.8 °F 69.8 °F 29.8 in WSW 3.1 mph 6.8 mph 43% 0 in 352.00 W/m2 unknown
18:24 96.8 °F 69.8 °F 29.8 in SSW 3.1 mph 3.7 mph 43% 0 in 338.00 W/m2 unknown
18:29 95 °F 69.8 °F 29.8 in SSW 3.1 mph 5 mph 44% 0 in 325.00 W/m2 unknown
18:34 95 °F 69.8 °F 29.8 in SSW 3.1 mph 5 mph 44% 0 in 308.00 W/m2 unknown
18:39 95 °F 69.8 °F 29.8 in SSE 2.5 mph 5 mph 45% 0 in 294.00 W/m2 unknown
18:44 95 °F 69.8 °F 29.8 in SSW 2.5 mph 3.7 mph 45% 0 in 279.00 W/m2 unknown
18:49 95 °F 69.8 °F 29.8 in South 3.7 mph 6.2 mph 44% 0 in 262.00 W/m2 unknown
18:54 95 °F 71.6 °F 29.8 in SSE 3.1 mph 6.2 mph 47% 0 in 251.00 W/m2 unknown
18:59 95 °F 73.4 °F 29.8 in SSE 3.1 mph 5 mph 50% 0 in 234.00 W/m2 unknown
19:04 95 °F 73.4 °F 29.8 in SE 2.5 mph 3.7 mph 49% 0 in 221.00 W/m2 unknown
19:09 95 °F 71.6 °F 29.8 in SSE 1.2 mph 3.7 mph 47% 0 in 209.00 W/m2 unknown
19:14 95 °F 71.6 °F 29.8 in SSE 1.9 mph 3.7 mph 48% 0 in 193.00 W/m2 unknown
19:19 95 °F 73.4 °F 29.8 in SE 3.1 mph 5 mph 51% 0 in 183.00 W/m2 unknown
19:24 95 °F 73.4 °F 29.8 in ESE 3.1 mph 4.3 mph 51% 0 in 169.00 W/m2 unknown
19:29 93.2 °F 71.6 °F 29.8 in ESE 1.9 mph 5 mph 49% 0 in 155.00 W/m2 unknown
19:34 93.2 °F 71.6 °F 29.8 in East 1.9 mph 3.1 mph 49% 0 in 141.00 W/m2 unknown
19:39 93.2 °F 71.6 °F 29.8 in ESE 1.9 mph 3.7 mph 50% 0 in 128.00 W/m2 unknown
19:44 93.2 °F 71.6 °F 29.7 in ESE 1.9 mph 3.7 mph 51% 0 in 111.00 W/m2 unknown
19:49 93.2 °F 71.6 °F 29.7 in ESE 1.9 mph 3.1 mph 51% 0 in 97.00 W/m2 unknown
19:54 93.2 °F 71.6 °F 29.7 in ESE 1.9 mph 2.5 mph 50% 0 in 84.00 W/m2 unknown
19:59 93.2 °F 71.6 °F 29.7 in ESE 1.9 mph 2.5 mph 51% 0 in 54.00 W/m2 unknown
20:04 91.4 °F 73.4 °F 29.7 in ESE 1.9 mph 2.5 mph 54% 0 in 18.00 W/m2 unknown
20:09 91.4 °F 73.4 °F 29.7 in ESE 1.9 mph 2.5 mph 57% 0 in 9.00 W/m2 unknown
20:14 91.4 °F 73.4 °F 29.7 in ESE 2.5 mph 3.7 mph 59% 0 in 7.00 W/m2 unknown
20:19 89.6 °F 73.4 °F 29.7 in East 1.2 mph 3.1 mph 59% 0 in 5.00 W/m2 unknown
20:24 89.6 °F 73.4 °F 29.7 in East 0.6 mph 2.5 mph 58% 0 in 5.00 W/m2 unknown
20:29 89.6 °F 73.4 °F 29.8 in East 0.6 mph 1.9 mph 59% 0 in 5.00 W/m2 unknown
20:34 89.6 °F 73.4 °F 29.8 in NE 1.2 mph 2.5 mph 58% 0 in 0.00 W/m2 unknown
20:39 89.6 °F 73.4 °F 29.8 in North 1.2 mph 1.9 mph 58% 0 in 0.00 W/m2 unknown
20:44 89.6 °F 73.4 °F 29.8 in North 0.6 mph 1.2 mph 61% 0 in 0.00 W/m2 unknown
20:49 89.6 °F 75.2 °F 29.8 in North 0.6 mph 1.2 mph 63% 0 in 0.00 W/m2 unknown
20:54 89.6 °F 75.2 °F 29.8 in Calm     63% 0 in 0.00 W/m2 unknown
20:59 87.8 °F 75.2 °F 29.8 in Calm     64% 0 in 0.00 W/m2 unknown
21:04 87.8 °F 75.2 °F 29.8 in Calm     64% 0 in 0.00 W/m2 unknown
21:09 87.8 °F 75.2 °F 29.8 in Calm     65% 0 in 0.00 W/m2 unknown
21:14 87.8 °F 75.2 °F 29.8 in Calm     65% 0 in 0.00 W/m2 unknown
21:19 87.8 °F 73.4 °F 29.8 in Calm     64% 0 in 0.00 W/m2 unknown
21:24 87.8 °F 73.4 °F 29.8 in Calm     64% 0 in 0.00 W/m2 unknown
21:29 87.8 °F 75.2 °F 29.8 in Calm     65% 0 in 0.00 W/m2 unknown
21:34 87.8 °F 75.2 °F 29.8 in Calm     66% 0 in 0.00 W/m2 unknown
21:39 87.8 °F 75.2 °F 29.8 in Calm     66% 0 in 0.00 W/m2 unknown
21:44 87.8 °F 75.2 °F 29.8 in Calm     67% 0 in 0.00 W/m2 unknown
21:49 87.8 °F 75.2 °F 29.8 in Calm     67% 0 in 0.00 W/m2 unknown
21:54 87.8 °F 75.2 °F 29.8 in Calm     67% 0 in 0.00 W/m2 unknown
21:59 86 °F 75.2 °F 29.8 in North 0.6 mph 1.2 mph 68% 0 in 0.00 W/m2 unknown
22:04 86 °F 75.2 °F 29.8 in North 1.2 mph 2.5 mph 68% 0 in 0.00 W/m2 unknown
22:09 86 °F 73.4 °F 29.8 in WNW 1.9 mph 3.1 mph 68% 0 in 0.00 W/m2 unknown
22:14 86 °F 73.4 °F 29.8 in West 2.5 mph 3.7 mph 68% 0 in 0.00 W/m2 unknown
22:19 86 °F 73.4 °F 29.8 in West 2.5 mph 3.7 mph 67% 0 in 0.00 W/m2 unknown
22:24 86 °F 73.4 °F 29.8 in West 1.9 mph 3.1 mph 67% 0 in 0.00 W/m2 unknown
22:29 86 °F 73.4 °F 29.8 in West 1.2 mph 2.5 mph 67% 0 in 0.00 W/m2 unknown
22:34 86 °F 73.4 °F 29.8 in WSW 2.5 mph 3.7 mph 70% 0 in 0.00 W/m2 unknown
22:39 84.2 °F 73.4 °F 29.8 in WSW 5.6 mph 8.1 mph 70% 0 in 0.00 W/m2 unknown
22:44 84.2 °F 73.4 °F 29.8 in West 21.1 mph 31.1 mph 70% 0 in 0.00 W/m2 unknown
22:49 84.2 °F 71.6 °F 29.8 in WNW 23 mph 31.1 mph 66% 0 in 0.00 W/m2 unknown
22:54 84.2 °F 71.6 °F 29.8 in WNW 24.2 mph 34.8 mph 67% 0 in 0.00 W/m2 unknown
22:59 82.4 °F 71.6 °F 29.9 in West 21.7 mph 34.8 mph 68% 0 in 0.00 W/m2 unknown
23:04 82.4 °F 71.6 °F 29.9 in West 16.2 mph 29.8 mph 70% 0 in 0.00 W/m2 unknown
23:09 82.4 °F 71.6 °F 29.9 in West 14.9 mph 24.9 mph 73% 0 in 0.00 W/m2 unknown
23:14 80.6 °F 71.6 °F 29.9 in West 18 mph 23 mph 76% 0 in 0.00 W/m2 unknown
23:19 80.6 °F 71.6 °F 29.9 in West 16.2 mph 23 mph 78% 0 in 0.00 W/m2 unknown
23:24 78.8 °F 71.6 °F 29.9 in West 14.3 mph 23 mph 78% 0 in 0.00 W/m2 unknown
23:29 78.8 °F 71.6 °F 29.9 in West 11.8 mph 18 mph 79% 0 in 0.00 W/m2 unknown
23:34 78.8 °F 71.6 °F 29.9 in West 13.7 mph 21.1 mph 79% 0 in 0.00 W/m2 unknown
23:39 78.8 °F 71.6 °F 29.9 in WNW 11.8 mph 21.1 mph 78% 0 in 0.00 W/m2 unknown
23:44 78.8 °F 71.6 °F 29.9 in WNW 15.5 mph 21.7 mph 78% 0 in 0.00 W/m2 unknown
23:49 78.8 °F 71.6 °F 29.8 in WNW 14.9 mph 21.7 mph 80% 0 in 0.00 W/m2 unknown
23:54 78.8 °F 71.6 °F 29.8 in WNW 14.3 mph 19.9 mph 81% 0 in 0.00 W/m2 unknown
23:59 77 °F 71.6 °F 29.8 in WNW 11.8 mph 19.9 mph 82% 0.01 in 0.00 W/m2 unknown
Stazione Meteorologica MeteoMincio Rivalta s/M (MN)
Con i complimenti di Weather Underground - 4 mb



GLOSSARIO METEOROLOGICO
Umidità Relativa
E' definita come il rapporto tra la pressione di vapore effettiva (e) e la pressione di vapore saturo (es), normalmente espresso in percento. E' la proprietà del vapore acqueo più frequentemente osservata, e può essere utilizzata per ricavare le altre variabili. Viene espressa in %. Questo rapporto viene chiamato anche stato igrometrico dell'aria. Valori inferiori al 30% denotano la presenza di aria secca o poco umida, mentre valori superiori al 70-80% sono indice di una notevole umidità (ad esempio in caso di pioggia o di nebbia).
Share

Non seguire questo link o sarai bannato dal sito!